Flag for Switzerland Weather past 2 weeks in Lucerne, Lucerne, Switzerland

Now
75 °F

Mild.


Feels Like: 77 °F
Forecast: 59 / 87 °F
Wind: 5 mph from Northeast

Location: Giswil

Current Time: Aug 4, 2015 at 12:13:26 PM

Latest Report: Aug 4, 2015 at 11:00 AM


Visibility: N/A

Pressure: 29.98 "Hg

Humidity: 65%

Dew point: 63 °F

Location of LucerneLocation

Historic Weather in Lucerne — Graph

°F

Lucerne temperature yesterday

Maximum temperature yesterday: 85 °F (at 5:00 PM)
Minimum temperature yesterday: 56 °F (at 5:00 AM)
Average temperature yesterday: 70 °F

Past Weeks' High & Low Weather Summary

 TemperatureHumidityPressure
High92 °F (Jul 22, 4:00 PM)100% (Jul 23, 1:00 AM)30.12 "Hg (Jul 23, 1:00 AM)
Low48 °F (Jul 31, 4:00 AM)38% (Jul 27, 7:00 PM)29.70 "Hg (Jul 24, 4:00 PM)
Average67 °F76%29.94 "Hg
* Reported Jul 20 10:00 AM — Aug 4 10:00 AM, Lucerne, Weather by CustomWeather, © 2015

Note: Actual official high and low records may vary slightly from our data, if they occured in-between our weather recording intervals... More about our weather records

Advertising

Lucerne weather history for previous 24 hours

 ConditionsComfort  
Time TempWeatherWind HumidityBarometerVisibility
10:00 AM
Tue, Aug 4
72 °FMild.1 mph74%29.98 "HgN/A
9:00 AM69 °FMild.1 mph83%29.96 "HgN/A
8:00 AM66 °FMild.1 mph90%29.96 "HgN/A
7:00 AM59 °FCool.2 mph99%29.99 "HgN/A
5:00 AM58 °FCool.1 mph98%29.99 "HgN/A
4:00 AM60 °FCool.1 mph98%29.99 "HgN/A
3:00 AM61 °FCool.1 mph96%30.00 "HgN/A
2:00 AM61 °FCool.2 mph98%30.01 "HgN/A
1:00 AM62 °FCool.2 mph96%30.01 "HgN/A
12:00 AM64 °FMild.2 mph93%30.00 "HgN/A
10:00 PM
Mon, Aug 3
67 °FMild.3 mph88%30.00 "HgN/A
9:00 PM70 °FMild.2 mph87%29.99 "HgN/A
8:00 PM77 °FMild.2 mph72%29.96 "HgN/A
7:00 PM83 °FWarm.1 mph51%29.94 "HgN/A
6:00 PM85 °FWarm.3 mph50%29.94 "HgN/A
5:00 PM85 °FWarm.3 mph50%29.95 "HgN/A
4:00 PM84 °FWarm.3 mph51%29.96 "HgN/A
3:00 PM83 °FWarm.2 mph51%29.98 "HgN/A
2:00 PM81 °FWarm.2 mph52%30.00 "HgN/A
1:00 PM80 °FWarm.3 mph54%30.01 "HgN/A
12:00 PM77 °FWarm.2 mph57%30.03 "HgN/A
Weather by CustomWeather, © 2015

See weather overviewHow to use our weather pages